Time,TemperatureF,DewpointF,PressureIn,WindDirection,WindDirectionDegrees,WindSpeedMPH,WindSpeedGustMPH,Humidity,HourlyPrecipIn,Conditions,Clouds,dailyrainin,SoftwareType,DateUTC
2013-08-06 00:11:00,66.0,57.0,-100.00,ESE,105,2.0,6.0,73,-99.99,,,-99.99,,2013-08-06 04:11:00,
2013-08-06 00:22:00,66.0,57.0,-100.00,ESE,105,2.0,6.0,73,-99.99,,,-99.99,,2013-08-06 04:22:00,
2013-08-06 00:33:00,66.0,57.0,-100.00,ESE,105,2.0,6.0,73,-99.99,,,-99.99,,2013-08-06 04:33:00,
2013-08-06 00:44:00,66.0,56.0,-100.00,SE,130,2.0,6.0,70,-99.99,,,-99.99,,2013-08-06 04:44:00,
2013-08-06 01:02:00,66.0,56.0,-100.00,ESE,110,3.0,6.0,70,-99.99,,,-99.99,,2013-08-06 05:02:00,
2013-08-06 01:22:00,66.0,56.0,-100.00,ESE,120,2.0,7.0,70,-99.99,,,-99.99,,2013-08-06 05:22:00,
2013-08-06 01:32:00,66.0,56.0,-100.00,East,95,4.0,6.0,70,-99.99,,,-99.99,,2013-08-06 05:32:00,
2013-08-06 01:53:00,66.0,56.0,-100.00,ESE,115,2.0,5.0,71,-99.99,,,-99.99,,2013-08-06 05:53:00,
2013-08-06 02:02:00,66.0,57.0,-100.00,ESE,115,1.0,4.0,71,-99.99,,,-99.99,,2013-08-06 06:02:00,
2013-08-06 02:11:00,66.0,57.0,-100.00,East,100,1.0,4.0,72,-99.99,,,-99.99,,2013-08-06 06:11:00,
2013-08-06 02:22:00,65.0,57.0,-100.00,SE,125,1.0,3.0,73,-99.99,,,-99.99,,2013-08-06 06:22:00,
2013-08-06 02:32:00,65.0,57.0,-100.00,ESE,115,1.0,3.0,74,-99.99,,,-99.99,,2013-08-06 06:32:00,
2013-08-06 02:43:00,65.0,57.0,-100.00,SE,135,0.0,1.0,75,-99.99,,,-99.99,,2013-08-06 06:43:00,
2013-08-06 02:52:00,65.0,57.0,-100.00,ESE,120,1.0,2.0,77,-99.99,,,-99.99,,2013-08-06 06:52:00,
2013-08-06 03:01:00,65.0,58.0,-100.00,SE,140,1.0,2.0,77,-99.99,,,-99.99,,2013-08-06 07:01:00,
2013-08-06 03:12:00,64.0,58.0,-100.00,ESE,105,0.0,1.0,79,-99.99,,,-99.99,,2013-08-06 07:12:00,
2013-08-06 03:32:00,64.0,58.0,-100.00,East,95,1.0,3.0,81,-99.99,,,-99.99,,2013-08-06 07:32:00,
2013-08-06 03:43:00,64.0,58.0,-100.00,East,95,1.0,4.0,81,-99.99,,,-99.99,,2013-08-06 07:43:00,
2013-08-06 03:53:00,64.0,58.0,-100.00,East,90,1.0,4.0,81,-99.99,,,-99.99,,2013-08-06 07:53:00,
2013-08-06 04:02:00,64.0,58.0,-100.00,East,100,1.0,4.0,81,-99.99,,,-99.99,,2013-08-06 08:02:00,
2013-08-06 04:11:00,64.0,58.0,-100.00,ESE,110,1.0,4.0,81,-99.99,,,-99.99,,2013-08-06 08:11:00,
2013-08-06 04:22:00,65.0,59.0,-100.00,ESE,110,1.0,4.0,81,-99.99,,,-99.99,,2013-08-06 08:22:00,
2013-08-06 04:33:00,65.0,59.0,-100.00,ESE,105,1.0,3.0,80,-99.99,,,-99.99,,2013-08-06 08:33:00,
2013-08-06 04:43:00,65.0,59.0,-100.00,South,175,1.0,4.0,81,-99.99,,,-99.99,,2013-08-06 08:43:00,
2013-08-06 04:52:00,65.0,59.0,-100.00,SSE,160,1.0,4.0,80,-99.99,,,-99.99,,2013-08-06 08:52:00,
2013-08-06 05:01:00,65.0,59.0,-100.00,SSE,150,0.0,6.0,79,-99.99,,,-99.99,,2013-08-06 09:01:00,
2013-08-06 05:32:00,65.0,59.0,-100.00,ESE,110,2.0,6.0,78,-99.99,,,-99.99,,2013-08-06 09:32:00,
2013-08-06 05:43:00,66.0,58.0,-100.00,ESE,105,1.0,7.0,77,-99.99,,,-99.99,,2013-08-06 09:43:00,
2013-08-06 06:01:00,66.0,58.0,-100.00,SSE,150,4.0,7.0,75,-99.99,,,-99.99,,2013-08-06 10:01:00,
2013-08-06 06:32:00,67.0,59.0,-100.00,SSE,150,2.0,7.0,74,-99.99,,,-99.99,,2013-08-06 10:32:00,
2013-08-06 06:43:00,67.0,58.0,-100.00,SSE,155,1.0,6.0,73,-99.99,,,-99.99,,2013-08-06 10:43:00,
2013-08-06 06:52:00,67.0,58.0,-100.00,SSE,155,1.0,6.0,73,-99.99,,,-99.99,,2013-08-06 10:52:00,
2013-08-06 07:32:00,68.0,58.0,-100.00,SE,125,1.0,8.0,70,-99.99,,,-99.99,,2013-08-06 11:32:00,
2013-08-06 07:43:00,68.0,58.0,-100.00,SE,125,1.0,8.0,70,-99.99,,,-99.99,,2013-08-06 11:43:00,
2013-08-06 08:02:00,69.0,58.0,-100.00,ESE,110,2.0,6.0,67,-99.99,,,-99.99,,2013-08-06 12:02:00,
2013-08-06 08:22:00,69.0,59.0,-100.00,SSE,150,2.0,7.0,71,-99.99,,,-99.99,,2013-08-06 12:22:00,
2013-08-06 08:43:00,68.0,59.0,-100.00,NE,50,1.0,4.0,70,-99.99,,,-99.99,,2013-08-06 12:43:00,
2013-08-06 08:52:00,68.0,58.0,-100.00,ESE,105,2.0,6.0,69,-99.99,,,-99.99,,2013-08-06 12:52:00,
2013-08-06 09:02:00,70.0,59.0,-100.00,East,100,3.0,7.0,68,-99.99,,,-99.99,,2013-08-06 13:02:00,
2013-08-06 09:11:00,70.0,59.0,-100.00,East,100,3.0,7.0,68,-99.99,,,-99.99,,2013-08-06 13:11:00,
2013-08-06 09:22:00,70.0,59.0,-100.00,East,100,3.0,7.0,68,-99.99,,,-99.99,,2013-08-06 13:22:00,
2013-08-06 10:32:00,74.0,57.0,-100.00,SE,145,6.0,11.0,54,-99.99,,,-99.99,,2013-08-06 14:32:00,
2013-08-06 10:53:00,73.0,57.0,-100.00,East,100,1.0,9.0,57,-99.99,,,-99.99,,2013-08-06 14:53:00,
2013-08-06 11:02:00,73.0,57.0,-100.00,East,100,1.0,9.0,57,-99.99,,,-99.99,,2013-08-06 15:02:00,
2013-08-06 11:33:00,73.0,58.0,-100.00,ESE,120,4.0,9.0,59,-99.99,,,-99.99,,2013-08-06 15:33:00,
2013-08-06 11:44:00,73.0,58.0,-100.00,ESE,120,4.0,9.0,59,-99.99,,,-99.99,,2013-08-06 15:44:00,
2013-08-06 12:02:00,78.0,60.0,-100.00,ESE,105,5.0,11.0,53,-99.99,,,-99.99,,2013-08-06 16:02:00,
2013-08-06 12:22:00,78.0,59.0,-100.00,SE,135,4.0,10.0,52,-99.99,,,-99.99,,2013-08-06 16:22:00,
2013-08-06 12:32:00,79.0,60.0,-100.00,East,95,4.0,9.0,50,-99.99,,,-99.99,,2013-08-06 16:32:00,
2013-08-06 12:43:00,80.0,60.0,-100.00,East,80,4.0,10.0,50,-99.99,,,-99.99,,2013-08-06 16:43:00,
2013-08-06 13:02:00,82.0,59.0,-100.00,South,170,4.0,10.0,45,-99.99,,,-99.99,,2013-08-06 17:02:00,
2013-08-06 13:21:00,82.0,59.0,-100.00,South,190,5.0,10.0,45,-99.99,,,-99.99,,2013-08-06 17:21:00,
2013-08-06 13:32:00,83.0,59.0,-100.00,ESE,120,2.0,10.0,44,-99.99,,,-99.99,,2013-08-06 17:32:00,
2013-08-06 13:44:00,82.0,58.0,-100.00,South,175,4.0,9.0,44,-99.99,,,-99.99,,2013-08-06 17:44:00,
2013-08-06 15:32:00,82.0,60.0,-100.00,SE,135,2.0,9.0,47,-99.99,,,-99.99,,2013-08-06 19:32:00,
2013-08-06 15:42:00,81.0,58.0,-100.00,SE,140,4.0,11.0,46,-99.99,,,-99.99,,2013-08-06 19:42:00,
2013-08-06 16:01:00,81.0,58.0,-100.00,SE,125,3.0,7.0,45,-99.99,,,-99.99,,2013-08-06 20:01:00,
2013-08-06 16:11:00,81.0,58.0,-100.00,SE,125,3.0,7.0,45,-99.99,,,-99.99,,2013-08-06 20:11:00,
2013-08-06 16:32:00,82.0,60.0,-100.00,ENE,65,1.0,6.0,47,-99.99,,,-99.99,,2013-08-06 20:32:00,
2013-08-06 16:44:00,83.0,61.0,-100.00,ENE,70,6.0,10.0,47,-99.99,,,-99.99,,2013-08-06 20:44:00,
2013-08-06 17:01:00,80.0,60.0,-100.00,NE,55,5.0,10.0,49,-99.99,,,-99.99,,2013-08-06 21:01:00,
2013-08-06 17:22:00,81.0,60.0,-100.00,ENE,70,4.0,10.0,48,-99.99,,,-99.99,,2013-08-06 21:22:00,
2013-08-06 17:43:00,82.0,61.0,-100.00,ENE,70,6.0,12.0,48,-99.99,,,-99.99,,2013-08-06 21:43:00,
2013-08-06 17:52:00,81.0,60.0,-100.00,ESE,120,4.0,12.0,49,-99.99,,,-99.99,,2013-08-06 21:52:00,
2013-08-06 18:01:00,83.0,61.0,-100.00,East,85,4.0,8.0,47,-99.99,,,-99.99,,2013-08-06 22:01:00,
2013-08-06 18:11:00,83.0,61.0,-100.00,East,80,4.0,9.0,47,-99.99,,,-99.99,,2013-08-06 22:11:00,
2013-08-06 18:32:00,83.0,61.0,-100.00,East,85,3.0,12.0,47,-99.99,,,-99.99,,2013-08-06 22:32:00,
2013-08-06 18:43:00,82.0,60.0,-100.00,SE,125,3.0,9.0,47,-99.99,,,-99.99,,2013-08-06 22:43:00,
2013-08-06 18:52:00,81.0,60.0,-100.00,ESE,110,4.0,9.0,48,-99.99,,,-99.99,,2013-08-06 22:52:00,
2013-08-06 19:01:00,82.0,61.0,-100.00,East,90,4.0,9.0,48,-99.99,,,-99.99,,2013-08-06 23:01:00,
2013-08-06 19:11:00,81.0,60.0,-100.00,East,95,6.0,10.0,49,-99.99,,,-99.99,,2013-08-06 23:11:00,
2013-08-06 19:33:00,80.0,60.0,-100.00,East,95,4.0,11.0,49,-99.99,,,-99.99,,2013-08-06 23:33:00,
2013-08-06 19:52:00,80.0,60.0,-100.00,East,80,6.0,11.0,51,-99.99,,,-99.99,,2013-08-06 23:52:00,
2013-08-06 20:01:00,80.0,61.0,-100.00,East,80,4.0,11.0,51,-99.99,,,-99.99,,2013-08-07 00:01:00,
2013-08-06 20:11:00,80.0,61.0,-100.00,East,80,4.0,11.0,51,-99.99,,,-99.99,,2013-08-07 00:11:00,
2013-08-06 20:21:00,79.0,60.0,-100.00,SE,130,3.0,7.0,52,-99.99,,,-99.99,,2013-08-07 00:21:00,
2013-08-06 20:32:00,78.0,60.0,-100.00,East,95,2.0,7.0,53,-99.99,,,-99.99,,2013-08-07 00:32:00,
2013-08-06 20:43:00,78.0,61.0,-100.00,ESE,105,2.0,6.0,55,-99.99,,,-99.99,,2013-08-07 00:43:00,
2013-08-06 20:52:00,77.0,61.0,-100.00,SE,140,1.0,5.0,56,-99.99,,,-99.99,,2013-08-07 00:52:00,
2013-08-06 21:01:00,77.0,61.0,-100.00,ESE,105,1.0,4.0,57,-99.99,,,-99.99,,2013-08-07 01:01:00,
2013-08-06 21:22:00,76.0,61.0,-100.00,SE,125,0.0,2.0,58,-99.99,,,-99.99,,2013-08-07 01:22:00,
2013-08-06 21:32:00,76.0,62.0,-100.00,East,100,1.0,2.0,62,-99.99,,,-99.99,,2013-08-07 01:32:00,
2013-08-06 21:43:00,75.0,62.0,-100.00,East,90,1.0,4.0,64,-99.99,,,-99.99,,2013-08-07 01:43:00,
2013-08-06 22:02:00,74.0,62.0,-100.00,East,85,0.0,1.0,66,-99.99,,,-99.99,,2013-08-07 02:02:00,
2013-08-06 22:53:00,73.0,62.0,-100.00,South,175,1.0,4.0,68,-99.99,,,-99.99,,2013-08-07 02:53:00,
2013-08-06 23:12:00,73.0,62.0,-100.00,SW,220,1.0,4.0,68,-99.99,,,-99.99,,2013-08-07 03:12:00,
2013-08-06 23:23:00,73.0,62.0,-100.00,SE,145,1.0,4.0,68,-99.99,,,-99.99,,2013-08-07 03:23:00,
2013-08-06 23:32:00,73.0,62.0,-100.00,South,175,0.0,4.0,69,-99.99,,,-99.99,,2013-08-07 03:32:00,
2013-08-06 23:43:00,72.0,62.0,-100.00,South,170,1.0,4.0,69,-99.99,,,-99.99,,2013-08-07 03:43:00,